Location: McFarlands Corners
(41.4117°N, 81.3382°W)
Time: 13:11:08
(UTC+00:00)

Transit 4A - Pass Details

Date: 24 February 2026
Orbit: 863 x 978 km, 66.8° (Epoch: 17 March)

Event Time Altitude Azimuth Distance (km) Brightness Sun altitude
Rises 15:25:00 0° 336° (NNW) 3,609 10.5 30.7°
Reaches altitude 10° 15:27:49 10° 346° (NNW) 2,679 9.9 31.1°
Maximum altitude 15:33:24 33° 49° (NE) 1,579 9.4 31.7°
Drops below altitude 10° 15:39:02 10° 111° (ESE) 2,715 11.3 32.3°
Sets 15:41:54 0° 121° (ESE) 3,665 11.9 32.7°
